Weather Roundup
Issued by NWS Springfield, MO

Home | Current Version | Previous Version | Text Only | Print | Product List | Glossary On
Versions: 1 2 3 4 5 6 7 8 9 10 11 12 13 14 15 16 17 18 19 20 21 22 23 24 25 26 27 28 29 30 31 32 33 34 35 36 37 38 39 40 41 42 43 44 45 46 47 48 49 50
580
NZUS99 KSGF 272357
HRRSGF

HOURLY WEATHER
NATIONAL WEATHER SERVICE SPRINGFIELD MO
700 PM CDT THU JUL 27 2017

......SGF CWA......

CITY           SKY/WX    TMP DP  RH WIND       PRES   REMARKS
SPRINGFIELD    CLOUDY    85  74  69 SW3       29.91F HX  92
6HR MIN TEMP:  80; 6HR MAX TEMP:  87;

JOPLIN         CLOUDY    88  74  63 SW7       29.90F HX  96
6HR MIN TEMP:  84; 6HR MAX TEMP:  93;

WEST PLAINS    CLOUDY    80  73  79 SW5       29.94F
6HR MIN TEMP:  78; 6HR MAX TEMP:  82;

ROLLA          CLOUDY    79  75  87 W6        29.93S
6HR MIN TEMP:  77; 6HR MAX TEMP:  81; 6HR PCP: TRACE;

BRANSON        CLOUDY    82  75  78 E3        29.95S

......SURROUNDING SGF CWA......

CITY           SKY/WX    TMP DP  RH WIND       PRES   REMARKS
CHANUTE        CLOUDY    83  74  74 NE9       29.91S
PARSONS        CLOUDY    85  76  74 VRB6      29.90S HX  94
COFFEYVILLE    RAIN      85  76  74 SE5       29.88S HX  94
EMPORIA        CLOUDY    83  70  64 NE9       29.93F
HARRISON AR    PTSUNNY   83  77  82 NE5       29.93F HX  92

......KANSAS AND MISSOURI......

CITY           SKY/WX    TMP DP  RH WIND       PRES   REMARKS
KANSAS CTY INT PTSUNNY   83  72  69 N8        29.94S
SEDALIA        CLOUDY    83  78  85 NE8       29.93R HX  93
ST JOSEPH      MOSUNNY   85  72  65 N9        29.93F HX  91
ST LOUIS       CLOUDY    81  75  82 NW7       29.88R
SPIRIT OF STL  LGT RAIN  80  77  90 W6        29.87R FOG
WICHITA        PTSUNNY   84  72  67 NE13      29.93S
TOPEKA         MOSUNNY   85  74  69 NE9       29.93F HX  92
OLATHE         CLOUDY    83  73  72 NE10      29.93F

......TENNESSEE......

CITY           SKY/WX    TMP DP  RH WIND       PRES   REMARKS
MEMPHIS        NOT AVBL
NASHVILLE      CLOUDY    88  70  55 SW5       29.91S HX  93

......ARKANSAS.......

CITY           SKY/WX    TMP DP  RH WIND       PRES   REMARKS
FAYETTEVILLE   MOSUNNY   84  75  74 SW5       29.92F HX  92
FT SMITH       PTSUNNY   95  74  50 W9        29.85S HX 105
LITTLE ROCK    CLOUDY    89  75  63 SW8       29.88S HX  99

......OKLAHOMA.......

CITY           SKY/WX    TMP DP  RH WIND       PRES   REMARKS
TULSA          CLOUDY    90  73  57 N6        29.85F HX  98
PONCA CITY     MOSUNNY   88  76  67 N5        29.88R HX  99
MCALESTER      MOSUNNY   93  75  55 VRB7      29.87F HX 104

......IOWA............

CITY           SKY/WX    TMP DP  RH WIND       PRES   REMARKS
DES MOINES     NOT AVBL
QUAD CITIES    SUNNY     82  64  54 NE15      29.93R

......ILLINOIS........

CITY           SKY/WX    TMP DP  RH WIND       PRES   REMARKS
QUINCY         SUNNY     83  71  67 N10       29.90S
CHICAGO        MOSUNNY   77  54  44 NE16G26   29.94S




USA.gov is the U.S. government's official web portal to all federal, state and local government web resources and services.